When you browse on this site, cookies collect data to enhance your experience and personalize the content and advertising you see.
Visit our Privacy Policy to learn more. By continuing to use the site, you agree to this use of cookies and data.
  • Em Portugal
  • Lista de países
  • Para 7 dias
  • Temperatura da água
  • Mapas de satélite
  • Mapa do tempo
  • Widgets de tempo
  • user-avatar
    Iniciar Sessão

    Previsão horária em Zapora

    Hoje, 16 Julho, Terça-feira

    Tempo Temperatura Precipitação Vento Pressão Humidade
    00:00 +14°C° 0 mm 2 m/s 746 mmHg 92%
    01:00 +14°C° 0 mm 1 m/s 746 mmHg 90%
    02:00 +14°C° 0 mm 2 m/s 746 mmHg 88%
    03:00 +14°C° 0 mm 2 m/s 745 mmHg 86%
    04:00 +12°C° 0 mm 3 m/s 745 mmHg 84%
    05:00 +13°C° 0 mm 3 m/s 745 mmHg 81%
    06:00 +13°C° 0 mm 4 m/s 745 mmHg 78%
    07:00 +14°C° 0 mm 4 m/s 745 mmHg 75%
    08:00 +14°C° 0.1 mm 4 m/s 745 mmHg 77%
    09:00 +15°C° 0.1 mm 4 m/s 745 mmHg 80%
    10:00 +15°C° 0.1 mm 4 m/s 745 mmHg 82%
    11:00 +17°C° 0.3 mm 5 m/s 745 mmHg 73%
    12:00 +19°C° 0.3 mm 5 m/s 745 mmHg 64%
    13:00 +21°C° 0.3 mm 6 m/s 745 mmHg 56%
    14:00 +21°C° 0.2 mm 5 m/s 745 mmHg 54%
    15:00 +21°C° 0.2 mm 5 m/s 745 mmHg 51%
    16:00 +21°C° 0.2 mm 5 m/s 745 mmHg 49%
    17:00 +20°C° 0 mm 5 m/s 745 mmHg 54%
    18:00 +19°C° 0 mm 4 m/s 745 mmHg 58%
    19:00 +18°C° 0 mm 3 m/s 744 mmHg 63%
    20:00 +16°C° 0 mm 3 m/s 745 mmHg 71%
    21:00 +14°C° 0 mm 4 m/s 745 mmHg 78%
    22:00 +13°C° 0 mm 4 m/s 745 mmHg 86%
    23:00 +13°C° 0 mm 4 m/s 745 mmHg 86%

    Amanhã, 17 Julho, Quarta-feira

    Tempo Temperatura Precipitação Vento Pressão Humidade
    00:00 +13°C° 0 mm 4 m/s 745 mmHg 86%
    01:00 +13°C° 0 mm 4 m/s 745 mmHg 86%
    02:00 +12°C° 0 mm 4 m/s 744 mmHg 88%
    03:00 +12°C° 0 mm 3 m/s 744 mmHg 91%
    04:00 +11°C° 0 mm 3 m/s 744 mmHg 94%
    05:00 +12°C° 0 mm 4 m/s 744 mmHg 86%
    06:00 +14°C° 0 mm 4 m/s 745 mmHg 79%
    07:00 +15°C° 0 mm 5 m/s 745 mmHg 71%
    08:00 +16°C° 0 mm 5 m/s 745 mmHg 66%
    09:00 +17°C° 0 mm 5 m/s 746 mmHg 60%
    10:00 +20°C° 0 mm 4 m/s 746 mmHg 54%
    11:00 +20°C° 0.1 mm 5 m/s 746 mmHg 55%
    12:00 +20°C° 0.1 mm 5 m/s 746 mmHg 56%
    13:00 +20°C° 0.1 mm 5 m/s 746 mmHg 56%
    14:00 +20°C° 0 mm 5 m/s 746 mmHg 56%
    15:00 +20°C° 0 mm 5 m/s 746 mmHg 55%
    16:00 +20°C° 0 mm 5 m/s 746 mmHg 54%
    17:00 +19°C° 0 mm 4 m/s 746 mmHg 58%
    18:00 +18°C° 0 mm 4 m/s 746 mmHg 63%
    19:00 +17°C° 0 mm 3 m/s 746 mmHg 67%
    20:00 +14°C° 0 mm 3 m/s 746 mmHg 74%
    21:00 +13°C° 0 mm 3 m/s 746 mmHg 81%
    22:00 +12°C° 0 mm 2 m/s 747 mmHg 88%
    23:00 +12°C° 0 mm 2 m/s 747 mmHg 90%

    Depois de amanhã, 18 Julho, Quinta-feira

    Tempo Temperatura Precipitação Vento Pressão Humidade
    00:00 +12°C° 0 mm 2 m/s 747 mmHg 92%
    01:00 +12°C° 0 mm 2 m/s 747 mmHg 94%
    02:00 +10°C° 0 mm 2 m/s 747 mmHg 94%
    03:00 +10°C° 0 mm 2 m/s 747 mmHg 94%
    04:00 +10°C° 0 mm 2 m/s 747 mmHg 94%
    05:00 +13°C° 0 mm 2 m/s 747 mmHg 86%
    06:00 +15°C° 0 mm 2 m/s 747 mmHg 77%
    07:00 +17°C° 0 mm 2 m/s 747 mmHg 69%
    08:00 +19°C° 0 mm 2 m/s 747 mmHg 62%
    09:00 +21°C° 0 mm 2 m/s 747 mmHg 55%
    10:00 +24°C° 0 mm 2 m/s 748 mmHg 48%
    11:00 +24°C° 0 mm 2 m/s 748 mmHg 48%
    12:00 +24°C° 0 mm 2 m/s 747 mmHg 47%
    13:00 +24°C° 0 mm 1 m/s 747 mmHg 47%
    14:00 +24°C° 0 mm 1 m/s 747 mmHg 48%
    15:00 +24°C° 0 mm 1 m/s 747 mmHg 50%
    16:00 +24°C° 0 mm 1 m/s 747 mmHg 52%
    17:00 +23°C° 0.1 mm 1 m/s 747 mmHg 57%
    18:00 +21°C° 0.1 mm 2 m/s 747 mmHg 63%
    19:00 +20°C° 0.1 mm 2 m/s 747 mmHg 68%
    20:00 +18°C° 0 mm 2 m/s 747 mmHg 73%
    21:00 +16°C° 0 mm 2 m/s 747 mmHg 78%
    22:00 +15°C° 0 mm 2 m/s 747 mmHg 83%
    23:00 +14°C° 0 mm 2 m/s 747 mmHg 84%

    19 Julho, Sexta-feira

    Tempo Temperatura Precipitação Vento Pressão Humidade
    00:00 +14°C° 0 mm 1 m/s 747 mmHg 85%
    01:00 +13°C° 0 mm 1 m/s 747 mmHg 86%
    02:00 +13°C° 0 mm 1 m/s 747 mmHg 87%
    03:00 +13°C° 0 mm 1 m/s 747 mmHg 88%
    04:00 +13°C° 0 mm 1 m/s 747 mmHg 89%
    05:00 +15°C° 0 mm 1 m/s 747 mmHg 82%
    06:00 +16°C° 0 mm 1 m/s 747 mmHg 75%
    07:00 +19°C° 0 mm 1 m/s 747 mmHg 69%
    08:00 +21°C° 0 mm 1 m/s 747 mmHg 62%
    09:00 +23°C° 0 mm 2 m/s 747 mmHg 56%
    10:00 +24°C° 0 mm 2 m/s 748 mmHg 49%
    11:00 +25°C° 0 mm 2 m/s 747 mmHg 47%
    12:00 +25°C° 0 mm 2 m/s 747 mmHg 46%
    13:00 +25°C° 0 mm 2 m/s 747 mmHg 44%
    14:00 +25°C° 0 mm 2 m/s 747 mmHg 45%
    15:00 +25°C° 0 mm 2 m/s 747 mmHg 46%
    16:00 +25°C° 0 mm 2 m/s 747 mmHg 47%
    17:00 +24°C° 0 mm 1 m/s 747 mmHg 52%
    18:00 +24°C° 0 mm 1 m/s 747 mmHg 57%
    19:00 +23°C° 0 mm 1 m/s 747 mmHg 62%
    20:00 +21°C° 0.1 mm 1 m/s 747 mmHg 68%
    21:00 +20°C° 0.1 mm 1 m/s 747 mmHg 74%
    22:00 +18°C° 0.1 mm 1 m/s 748 mmHg 81%
    23:00 +18°C° 0.4 mm 1 m/s 748 mmHg 83%

    20 Julho, Sábado

    Tempo Temperatura Precipitação Vento Pressão Humidade
    00:00 +18°C° 0.4 mm 1 m/s 748 mmHg 85%
    01:00 +17°C° 0.4 mm 2 m/s 748 mmHg 88%
    02:00 +17°C° 0.2 mm 2 m/s 748 mmHg 88%
    03:00 +16°C° 0.2 mm 1 m/s 748 mmHg 89%
    04:00 +16°C° 0.2 mm 1 m/s 748 mmHg 89%
    05:00 +18°C° 0 mm 1 m/s 748 mmHg 85%
    06:00 +19°C° 0 mm 1 m/s 748 mmHg 81%
    07:00 +20°C° 0 mm 1 m/s 748 mmHg 77%
    08:00 +22°C° 0.2 mm 1 m/s 748 mmHg 71%
    09:00 +24°C° 0.2 mm 1 m/s 749 mmHg 64%
    10:00 +26°C° 0.2 mm 1 m/s 749 mmHg 58%
    11:00 +25°C° 1.8 mm 1 m/s 749 mmHg 61%
    12:00 +25°C° 1.8 mm 1 m/s 749 mmHg 64%
    13:00 +25°C° 1.8 mm 1 m/s 749 mmHg 67%
    14:00 +25°C° 1.4 mm 2 m/s 748 mmHg 66%
    15:00 +25°C° 1.4 mm 2 m/s 748 mmHg 66%
    16:00 +25°C° 1.4 mm 2 m/s 748 mmHg 65%
    17:00 +24°C° 0.6 mm 2 m/s 748 mmHg 70%
    18:00 +23°C° 0.6 mm 1 m/s 748 mmHg 75%
    19:00 +22°C° 0.6 mm 1 m/s 748 mmHg 80%
    20:00 +21°C° 0.1 mm 1 m/s 749 mmHg 83%
    21:00 +20°C° 0.1 mm 1 m/s 749 mmHg 87%
    22:00 +19°C° 0.1 mm 1 m/s 749 mmHg 91%
    23:00 +18°C° 0 mm 1 m/s 749 mmHg 91%

    21 Julho, Domingo

    Tempo Temperatura Precipitação Vento Pressão Humidade
    00:00 +18°C° 0 mm 1 m/s 749 mmHg 90%
    01:00 +18°C° 0 mm 1 m/s 749 mmHg 90%
    02:00 +18°C° 0 mm 1 m/s 749 mmHg 90%
    03:00 +18°C° 0 mm 1 m/s 749 mmHg 90%
    04:00 +18°C° 0 mm 1 m/s 749 mmHg 89%
    05:00 +18°C° 0.1 mm 1 m/s 749 mmHg 87%
    06:00 +19°C° 0.1 mm 1 m/s 749 mmHg 84%
    07:00 +20°C° 0.1 mm 1 m/s 749 mmHg 82%
    08:00 +22°C° 0.2 mm 1 m/s 749 mmHg 74%
    09:00 +23°C° 0.2 mm 1 m/s 750 mmHg 67%
    10:00 +25°C° 0.2 mm 1 m/s 750 mmHg 60%
    11:00 +25°C° 0.5 mm 1 m/s 750 mmHg 59%
    12:00 +26°C° 0.5 mm 1 m/s 750 mmHg 57%
    13:00 +26°C° 0.5 mm 1 m/s 750 mmHg 56%
    14:00 +26°C° 1 mm 1 m/s 750 mmHg 58%
    15:00 +25°C° 1 mm 1 m/s 750 mmHg 61%
    16:00 +25°C° 1 mm 1 m/s 750 mmHg 64%
    17:00 +24°C° 0.4 mm 1 m/s 750 mmHg 70%
    18:00 +23°C° 0.4 mm 1 m/s 750 mmHg 76%
    19:00 +22°C° 0.4 mm 1 m/s 750 mmHg 81%
    20:00 +20°C° 0 mm 2 m/s 750 mmHg 85%
    21:00 +18°C° 0 mm 2 m/s 750 mmHg 90%
    22:00 +17°C° 0 mm 2 m/s 750 mmHg 94%
    23:00 +17°C° 0 mm 2 m/s 750 mmHg 94%
    Mostrar mais